Regional Weather Roundup
Issued by NWS

Home | Current Version | Previous Version | Text Only | Print | Product List | Glossary Off
Versions: 1 2 3 4 5 6 7 8 9 10 11 12 13 14 15 16 17 18 19 20 21 22 23 24 25 26 27 28 29 30 31 32 33 34 35 36 37 38 39 40 41 42 43 44 45 46 47 48 49 50

000
ASUS43 KOAX 250710
RWRNE

WEATHER ROUNDUP FOR NEBRASKA
NATIONAL WEATHER SERVICE OMAHA NE
200 AM CDT MON MAY 25 2015

NOTES: SATELLITE DATA IS BEING USED TO AUGMENT CLOUD COVER ABOVE
       12000 FEET.
       "FAIR" INDICATES FEW OR NO CLOUDS BELOW 12,000 FEET WITH NO
       SIGNIFICANT WEATHER AND/OR OBSTRUCTIONS TO VISIBILITY.

  * THESE STATIONS DO NOT REPORT WEATHER SUCH AS RAIN...SNOW OR FOG.

NEZ001>004-019>022-054>056-250800-
NEBRASKA PANHANDLE

CITY           SKY/WX    TMP DP  RH WIND       PRES   REMARKS
SCOTTSBLUFF    LGT RAIN  52  49  89 E5        29.84F
ALLIANCE       CLOUDY    51  50  96 CALM      29.81F
CHADRON        CLOUDY    53  51  93 CALM      29.82S
KIMBALL          N/A    N/A N/A N/A MISG        N/A
SIDNEY         CLOUDY    50  47  89 NE5       29.82F
$$

NEZ057>060-069>072-079>082-250800-
SOUTHWEST NEBRASKA

CITY           SKY/WX    TMP DP  RH WIND       PRES   REMARKS
NORTH PLATTE   CLOUDY    50  48  93 SE5       29.78F
IMPERIAL       CLOUDY    52  49  89 SE7       29.80R
LEXINGTON      CLOUDY    53  52  95 S14       29.81R
MCCOOK         CLOUDY    54  52  93 NE7       29.76F
OGALLALA       CLOUDY    52  50  95 NW14      29.76F
$$

NEZ005>010-023>029-035>040-094-250800-
NORTH CENTRAL NEBRASKA

CITY           SKY/WX    TMP DP  RH WIND       PRES   REMARKS
VALENTINE      CLOUDY    57  56  96 NE3       29.79F
AINSWORTH      FOG       57  57 100 E3        29.80F VSB 1/2
BROKEN BOW     CLOUDY    56  53  90 CALM      29.76F
O`NEILL        FOG       56  56  99 CALM      29.78F VSB 1/4
ORD            FOG       55  55 100 SE3       29.75F VSB 1
THEDFORD       CLOUDY    55  53  94 NW5       29.77F
$$

NEZ041-046>049-061>064-073>077-083>087-250800-
SOUTH CENTRAL NEBRASKA

CITY           SKY/WX    TMP DP  RH WIND       PRES   REMARKS
GRAND ISLAND   MOCLDY    61  59  93 S10       29.78F
AURORA         PTCLDY    60  60 100 SW7       29.79S
HASTINGS       MOCLDY    60  59  96 S5        29.78F
HEBRON         MOCLDY    60  58  92 SW3       29.79F
HOLDREGE       CLOUDY    55  52  90 W9        29.80R
KEARNEY *      CLOUDY    61  57  88 S9        29.78F
YORK           CLOUDY    61  59  94 SW10      29.79F
$$

NEZ011>018-030>034-042>045-250800-
NORTHEAST NEBRASKA

CITY           SKY/WX    TMP DP  RH WIND       PRES   REMARKS
NORFOLK        CLOUDY    59  59 100 CALM      29.77F FOG
ALBION         CLOUDY    57  56  94 CALM      29.78F FOG
BLAIR          CLOUDY    63  59  87 SW9       29.77S
COLUMBUS *     CLOUDY    59  54  82 CALM      29.81S
FREMONT        CLOUDY    64  61  88 SW5       29.77S
TEKAMAH        CLOUDY    63  61  93 SW3       29.75F
WAYNE          FOG       59  58  98 SW3       29.77F VSB 1/4
$$

NEZ050>053-065>068-078-088>093-250800-
SOUTHEAST NEBRASKA

CITY           SKY/WX    TMP DP  RH WIND       PRES   REMARKS
LINCOLN        CLOUDY    60  59  96 CALM      29.79S
OMAHA EPPLEY   CLOUDY    65  60  84 SW5       29.77S
BEATRICE       MOCLDY    62  61  95 SW7       29.80S
FALLS CITY     LGT RAIN  62  61  96 S8        29.80S
NEBRASKA CITY  RAIN      61  61 100 S7        29.80R
PLATTSMOUTH    CLOUDY    61  59  94 S6        29.79R
$$

NEZ044-045-051>053-067-250800-
OMAHA AREA

CITY           SKY/WX    TMP DP  RH WIND       PRES   REMARKS
OMAHA EPPLEY   CLOUDY    65  60  84 SW5       29.77S
BLAIR          CLOUDY    63  59  87 SW9       29.77S
FREMONT        CLOUDY    64  61  88 SW5       29.77S
MILLARD        CLOUDY    64  60  89 CALM      29.77S
OFFUTT AFB     CLOUDY    61  60  95 S5        29.77S
PLATTSMOUTH    CLOUDY    61  59  94 S6        29.79R
WAHOO          CLOUDY    63  60  92 SW3       29.77F
$$



USA.gov is the U.S. government's official web portal to all federal, state and local government web resources and services.